Wind_Speed
14 13 15 16 15 15 14 15 15 16 15 11 8 6 7 9 9 8 7 8 7 6 7 8 8 8 7 5 7 8 9 9 10 12 14 14 14 15 15 15 14 17 21
13 12 14 16 17 15 15 17 17 17 14 10 9 8 8 11 9 8 6 8 7 7 7 8 8 8 9 7 6 7 7 8 9 9 10 14 15 14 13 13 16 19 21
17 15 16 17 17 16 17 18 20 18 14 12 11 10 9 9 12 10 9 8 6 6 5 7 8 7 7 8 8 8 7 8 9 10 11 10 13 15 15 15 17 20 19
16 15 18 19 20 20 17 18 19 18 17 14 13 9 9 10 11 10 9 9 6 5 4 6 6 7 7 7 8 9 8 7 9 10 12 11 11 8 18 18 19 18 16
15 14 16 19 20 20 18 18 19 18 18 16 14 10 11 12 15 11 10 9 7 6 6 7 7 8 8 7 7 9 8 6 9 11 12 12 11 13 9 20 19 15 13
14 13 12 19 20 20 20 19 19 20 19 17 16 14 12 12 13 12 12 9 7 7 7 9 9 8 8 7 7 8 8 8 7 12 12 11 9 13 17 16 14 13 12
13 15 17 16 20 19 19 20 19 20 20 20 18 16 14 14 13 15 14 10 9 8 8 8 8 10 9 8 8 8 8 8 8 11 12 12 9 11 16 16 17 13 12
13 12 15 18 21 22 20 20 20 21 23 23 21 18 16 16 15 15 15 14 12 12 10 9 7 8 10 8 7 8 8 10 9 11 12 11 8 9 16 16 15 14 13
20 19 17 17 21 23 23 23 23 22 24 26 23 20 19 18 16 15 16 16 13 9 12 11 9 8 8 10 10 10 10 10 10 11 11 9 9 9 16 18 14 11 9
25 31 24 20 21 24 26 26 26 26 26 28 27 23 22 20 18 16 16 18 16 15 11 13 11 10 10 9 10 11 12 11 10 10 11 10 7 9 12 16 15 13 11
29 26 24 25 24 26 29 29 29 29 29 28 30 27 24 23 22 19 18 18 19 18 17 16 14 11 12 11 11 12 12 12 12 12 12 11 10 9 9 11 13 13 13
28 26 27 25 28 26 25 26 31 30 30 30 31 31 29 26 24 22 20 19 20 20 19 17 15 14 13 12 12 12 13 12 13 13 13 12 11 10 11 12 11 11 12
33 29 26 31 36 33 29 27 29 32 32 30 29 31 31 27 26 26 23 21 20 21 21 19 18 17 15 14 13 13 12 13 14 15 15 14 13 12 12 11 11 12 12
38 36 35 35 32 26 36 24 26 28 27 26 26 28 31 30 27 28 26 24 22 22 22 22 19 19 18 16 14 14 13 13 14 14 14 14 15 14 14 14 13 14 14
40 38 37 35 31 26 21 31 27 29 30 28 28 28 29 32 32 29 27 27 26 24 25 24 21 19 20 19 18 16 15 13 12 12 13 15 15 16 16 17 17 17 17
44 42 40 39 36 37 32 29 24 32 34 32 30 33 32 32 33 35 34 32 30 28 27 26 24 22 20 20 21 20 18 16 14 12 11 10 10 13 15 16 17 18 20
47 48 47 45 43 41 40 38 36 41 34 33 37 39 37 36 36 37 39 37 35 35 33 31 29 27 25 24 24 23 21 20 18 17 16 14 13 13 13 14 13 13 15
46 48 49 49 49 48 47 46 44 44 45 34 32 34 43 39 38 37 38 40 40 37 37 36 35 33 31 30 28 29 27 25 24 22 21 19 18 18 18 18 17 17 15
49 49 49 50 52 53 51 50 49 48 45 43 39 39 31 41 40 38 38 38 41 42 40 39 39 36 34 34 33 33 32 28 26 25 25 23 23 23 23 23 22 23 21
50 51 51 52 52 52 53 54 54 54 52 50 48 44 44 38 39 46 43 43 43 44 46 45 44 43 39 39 38 38 37 33 30 30 29 28 27 28 29 27 28 25 27
55 55 56 56 56 55 55 56 56 55 54 53 52 50 48 46 45 44 36 45 42 49 48 47 48 48 46 43 43 43 42 39 36 35 33 32 32 32 32 31 29 26 30
58 59 60 61 61 61 61 60 59 58 56 56 56 54 52 52 52 51 47 43 42 52 55 53 49 48 46 45 44 44 45 43 42 39 38 38 39 37 37 36 31 30 31
55 59 60 62 64 66 66 65 65 64 62 61 59 59 58 56 55 53 50 46 41 38 39 47 48 46 46 44 46 45 45 45 46 43 41 42 42 41 40 39 37 35 33
50 52 55 58 62 65 67 69 70 71 70 68 66 65 63 62 60 57 55 54 51 48 51 48 52 50 47 41 41 43 44 45 47 44 43 44 46 45 42 39 39 40 38
52 54 56 57 59 62 64 68 70 73 73 74 73 71 70 68 66 65 62 59 59 55 58 51 45 49 45 46 47 47 46 45 42 42 44 46 45 44 43 42 41 42 42
52 52 53 55 57 60 63 66 68 70 73 75 76 76 76 75 74 71 68 67 64 63 62 57 53 47 45 52 53 55 48 45 41 37 37 36 39 40 40 41 44 45 44
Wind_Direction
203 208 211 206 204 206 198 204 201 196 192 193 183 189 202 199 179 173 167 170 159 144 138 135 139 135 128 133 135 127 120 116 108 106 110 102 102 105 111 114 114 114 118
199 209 213 210 206 208 206 204 206 204 195 198 189 188 203 192 188 189 189 176 164 148 160 150 149 142 134 136 137 132 132 131 120 108 110 111 113 115 113 113 116 119 125
196 206 207 210 210 211 210 207 205 205 198 196 202 198 195 199 191 199 200 197 186 166 167 156 155 156 149 154 152 139 136 147 135 127 119 104 116 124 122 120 123 126 128
216 215 217 211 211 213 212 213 211 204 205 205 210 206 184 192 210 201 203 209 208 194 186 164 160 164 179 175 173 163 155 150 154 141 136 130 120 117 131 131 133 135 133
217 228 228 226 215 215 210 215 214 208 211 214 217 213 197 194 214 210 219 211 208 212 193 172 169 170 173 187 186 173 179 166 165 156 153 151 141 136 148 142 146 146 143
218 218 226 230 224 217 212 211 211 214 213 217 219 222 211 211 219 203 215 220 217 211 201 193 176 173 169 172 182 179 183 177 177 170 162 171 147 161 153 157 154 153 155
223 230 236 230 227 222 216 212 211 215 216 216 222 221 217 217 215 212 212 224 225 222 213 206 184 184 179 176 182 176 182 184 185 180 170 173 162 151 165 169 168 167 166
227 232 234 228 218 222 217 219 212 215 216 218 220 219 218 220 223 221 217 218 220 225 216 213 214 202 187 172 175 183 183 185 187 188 180 177 172 158 172 174 178 176 175
238 234 233 228 218 221 221 218 218 216 220 217 221 222 218 220 224 222 222 215 221 218 230 220 217 227 204 187 180 186 189 189 188 190 185 184 179 171 175 179 182 182 185
225 230 222 225 224 222 223 222 222 217 217 219 218 221 224 224 224 225 224 223 219 219 224 237 225 218 220 205 198 191 190 188 189 196 191 185 183 183 178 184 188 184 189
225 237 236 218 232 221 221 224 223 225 221 216 220 222 225 230 230 226 223 223 222 219 214 227 233 223 221 213 214 198 199 194 192 195 195 193 191 191 191 192 196 197 201
224 225 228 236 231 241 238 242 225 226 228 225 219 224 229 230 237 234 229 222 225 226 221 225 225 225 218 216 215 213 201 200 202 204 204 206 205 205 202 204 205 211 216
224 223 225 225 226 220 224 231 232 229 227 231 233 229 231 232 235 241 237 231 226 229 229 225 226 221 219 219 220 223 219 209 205 207 212 215 222 225 223 224 226 234 239
228 229 233 240 256 212 221 217 228 230 234 244 245 242 238 236 235 237 241 240 234 231 229 229 228 228 226 222 219 221 223 220 217 214 216 220 226 231 236 238 238 241 247
225 229 233 241 250 240 241 231 221 230 231 226 225 237 242 243 239 238 241 242 240 233 232 231 231 230 229 232 232 227 225 225 221 216 217 225 229 236 239 242 244 248 251
225 227 230 235 238 236 233 240 228 239 235 232 235 233 230 233 239 239 240 240 241 238 231 230 232 232 230 232 235 237 235 231 232 232 231 237 238 237 243 249 251 254 257
226 228 229 231 234 239 245 244 244 241 242 237 234 234 232 230 233 235 237 241 241 236 230 226 227 228 229 232 233 234 234 238 239 240 240 241 241 246 249 252 255 255 259
231 232 233 233 235 237 240 244 247 249 248 261 254 238 234 230 233 239 241 239 241 244 240 235 229 227 226 227 230 235 235 233 238 242 244 246 250 253 255 255 259 263 263
235 235 235 236 237 239 240 242 247 249 252 255 259 259 258 237 236 234 240 243 244 241 242 242 238 233 232 234 232 235 238 237 239 244 246 248 253 258 261 264 261 260 263
238 239 239 239 238 239 241 242 243 248 250 252 253 254 254 254 244 241 238 238 242 246 244 244 245 244 237 237 238 239 239 239 242 245 250 251 251 252 256 257 258 258 260
240 240 240 242 242 241 241 242 242 243 246 248 251 251 252 251 250 254 251 244 258 248 244 243 245 243 243 240 238 240 241 241 241 244 246 251 253 255 259 261 263 261 260
242 243 243 242 242 244 245 244 244 244 243 243 246 247 247 250 252 251 250 249 260 259 255 236 243 244 241 242 242 242 243 243 242 241 245 248 251 253 257 261 262 263 261
246 245 245 246 246 244 244 245 247 246 246 245 244 245 245 245 249 251 250 252 256 251 233 236 239 242 242 242 244 244 246 245 245 245 244 246 249 251 253 257 261 260 261
252 251 249 248 248 248 248 246 245 246 247 246 245 245 245 245 245 247 248 248 247 242 245 241 239 240 238 237 244 245 246 246 248 249 248 249 249 249 252 254 260 263 265
257 257 256 255 254 251 249 249 249 247 246 247 247 247 246 246 246 245 246 246 248 241 243 253 250 239 242 243 244 248 249 248 248 249 252 254 255 256 256 254 252 257 260
258 258 258 259 259 259 258 256 252 249 249 247 246 247 248 247 248 247 245 247 246 249 249 249 249 241 244 243 242 244 244 246 250 249 254 253 252 254 255 255 255 256 258
Height
5914 5916 5918 5920 5922 5924 5927 5928 5930 5931 5933 5936 5938 5939 5940 5942 5943 5943 5946 5946 5947 5949 5950 5951 5952 5952 5953 5954 5955 5956 5956 5956 5957 5958 5959 5960 5960 5961 5962 5963 5964 5965 5967
5913 5916 5917 5919 5920 5923 5926 5928 5929 5931 5933 5936 5938 5938 5940 5942 5946 5947 5947 5948 5947 5949 5951 5951 5952 5954 5955 5957 5958 5958 5958 5959 5960 5962 5962 5962 5964 5964 5965 5966 5967 5969 5970
5911 5913 5915 5917 5919 5922 5924 5926 5928 5930 5932 5935 5938 5938 5940 5943 5946 5947 5948 5949 5951 5950 5951 5952 5953 5954 5956 5958 5959 5960 5961 5961 5962 5964 5965 5965 5965 5966 5968 5969 5971 5972 5974
5909 5911 5912 5915 5917 5919 5923 5925 5928 5930 5931 5934 5937 5939 5941 5944 5945 5947 5948 5951 5952 5952 5952 5952 5953 5955 5956 5958 5960 5962 5963 5963 5964 5966 5967 5968 5968 5970 5969 5972 5974 5975 5976
5908 5911 5912 5913 5915 5918 5921 5924 5927 5930 5931 5934 5937 5940 5942 5943 5944 5947 5950 5951 5953 5954 5954 5954 5954 5955 5957 5959 5960 5962 5963 5965 5966 5967 5969 5970 5970 5971 5974 5973 5975 5977 5979
5906 5910 5910 5911 5913 5916 5919 5922 5925 5928 5930 5933 5936 5938 5941 5943 5945 5947 5950 5950 5953 5954 5955 5955 5955 5957 5957 5959 5961 5961 5963 5966 5967 5969 5970 5971 5972 5972 5973 5976 5978 5979 5980
5904 5906 5907 5910 5911 5914 5917 5920 5922 5926 5928 5931 5934 5937 5939 5941 5944 5946 5947 5950 5952 5954 5955 5956 5957 5957 5958 5959 5960 5961 5962 5965 5968 5970 5971 5972 5973 5974 5975 5977 5978 5981 5982
5901 5902 5905 5907 5908 5911 5914 5917 5920 5923 5926 5929 5931 5934 5937 5939 5942 5944 5947 5949 5951 5953 5955 5956 5958 5958 5958 5958 5960 5961 5962 5964 5967 5970 5971 5973 5974 5976 5978 5979 5980 5981 5983
5898 5899 5901 5903 5906 5908 5911 5914 5916 5919 5923 5926 5930 5932 5934 5937 5940 5943 5945 5947 5950 5954 5955 5955 5956 5957 5958 5957 5959 5961 5962 5964 5967 5969 5971 5973 5974 5976 5978 5979 5981 5983 5984
5890 5895 5895 5897 5902 5905 5907 5910 5913 5915 5918 5922 5926 5930 5933 5935 5938 5940 5944 5945 5948 5952 5955 5957 5956 5957 5958 5959 5959 5960 5962 5963 5966 5969 5971 5973 5974 5975 5977 5979 5981 5982 5984
5891 5892 5894 5892 5898 5898 5902 5906 5910 5913 5915 5918 5922 5926 5930 5933 5935 5938 5941 5944 5947 5949 5953 5954 5956 5957 5958 5959 5960 5960 5962 5963 5965 5968 5971 5972 5973 5976 5977 5979 5981 5981 5982
5886 5888 5888 5890 5896 5897 5901 5903 5905 5909 5912 5915 5917 5922 5926 5930 5933 5936 5938 5942 5945 5947 5949 5952 5954 5956 5957 5959 5960 5961 5961 5963 5964 5967 5969 5971 5973 5975 5976 5978 5980 5982 5983
5879 5883 5885 5887 5888 5890 5894 5899 5902 5903 5906 5910 5915 5918 5922 5926 5930 5932 5935 5938 5941 5945 5947 5950 5952 5955 5956 5957 5959 5961 5961 5962 5963 5965 5967 5970 5971 5973 5974 5976 5978 5980 5981
5872 5876 5879 5881 5880 5878 5884 5890 5895 5898 5903 5909 5913 5915 5918 5921 5925 5928 5931 5935 5938 5941 5945 5947 5949 5953 5955 5956 5958 5960 5961 5962 5963 5964 5966 5968 5969 5971 5971 5973 5975 5976 5977
5865 5868 5872 5874 5875 5876 5878 5882 5887 5893 5896 5899 5904 5906 5912 5916 5920 5923 5926 5930 5934 5937 5941 5945 5947 5950 5953 5954 5956 5958 5959 5962 5962 5964 5964 5966 5967 5968 5969 5970 5971 5973 5974
5857 5860 5864 5867 5870 5873 5877 5877 5881 5887 5888 5893 5896 5899 5903 5907 5912 5916 5920 5923 5928 5932 5935 5939 5943 5947 5949 5951 5953 5955 5957 5959 5960 5962 5963 5964 5966 5966 5967 5968 5968 5969 5970
5848 5851 5855 5857 5861 5865 5867 5871 5874 5878 5882 5885 5887 5891 5895 5899 5904 5907 5911 5917 5921 5924 5928 5931 5935 5939 5943 5946 5948 5950 5953 5955 5957 5959 5960 5962 5963 5964 5964 5965 5965 5966 5966
5839 5843 5847 5849 5853 5856 5860 5863 5867 5869 5872 5874 5878 5883 5887 5890 5895 5900 5905 5909 5914 5918 5923 5926 5928 5931 5936 5938 5941 5944 5946 5949 5953 5955 5957 5958 5959 5960 5960 5961 5962 5963 5963
5830 5834 5838 5841 5845 5848 5851 5855 5858 5861 5864 5868 5871 5874 5879 5884 5888 5891 5896 5901 5905 5910 5915 5919 5922 5926 5929 5931 5934 5936 5939 5943 5946 5948 5950 5952 5954 5955 5955 5955 5957 5957 5958
5819 5823 5826 5829 5834 5838 5841 5845 5849 5851 5855 5859 5863 5866 5870 5874 5879 5884 5887 5891 5895 5900 5904 5909 5915 5918 5922 5923 5926 5927 5930 5935 5940 5940 5942 5945 5946 5947 5947 5948 5948 5951 5951
5806 5810 5814 5817 5821 5825 5829 5832 5837 5841 5845 5849 5852 5856 5859 5864 5868 5872 5877 5883 5886 5889 5893 5898 5903 5908 5912 5914 5916 5918 5920 5925 5929 5931 5934 5937 5938 5938 5939 5940 5942 5944 5943
5793 5796 5800 5804 5808 5811 5815 5820 5824 5829 5834 5838 5841 5844 5848 5852 5856 5861 5866 5870 5873 5876 5876 5885 5891 5897 5900 5904 5907 5909 5911 5915 5917 5921 5924 5926 5927 5929 5930 5932 5935 5936 5935
5780 5783 5787 5790 5793 5796 5801 5805 5809 5814 5818 5824 5829 5832 5835 5840 5843 5847 5854 5858 5861 5864 5867 5874 5881 5886 5890 5892 5896 5899 5900 5903 5905 5910 5912 5914 5917 5920 5921 5922 5924 5925 5926
5765 5769 5772 5775 5778 5781 5784 5788 5793 5797 5802 5808 5813 5817 5822 5825 5830 5834 5840 5844 5851 5856 5858 5863 5868 5874 5878 5881 5885 5887 5888 5889 5891 5897 5899 5902 5904 5908 5912 5915 5916 5916 5917
5750 5753 5755 5758 5760 5764 5768 5771 5774 5779 5785 5790 5796 5801 5806 5810 5815 5820 5824 5831 5836 5842 5847 5852 5856 5862 5863 5868 5872 5874 5876 5878 5880 5883 5887 5891 5895 5898 5900 5902 5904 5903 5906
5736 5739 5741 5742 5744 5746 5749 5751 5756 5761 5766 5771 5777 5781 5787 5793 5798 5803 5811 5815 5821 5825 5831 5838 5843 5848 5853 5855 5857 5859 5860 5864 5870 5872 5875 5881 5883 5886 5889 5890 5891 5891 5893